COSMOS 2251 DEB, 34274

Orbit data source: Space-Track

COSMOS 2251 DEB, 34274 is space debris in LEO originally from a launch on Wed, 16 Jun 1993 UTC launched from the Plesetsk Missile And Space Complex (PKMTR). The debris from Iridium 33, an American commercial communications satellite, has been tracked extensively since its accidental collision with the defunct Russian satellite Cosmos 2251 in 2009. This event, occurring at high speed in low Earth orbit (LEO), generated thousands of pieces of space debris, significantly increasing the risk of further collisions. The Iridium 33 debris cloud has impacted space traffic management and orbital debris mitigation strategies, making it a subject of ongoing study in space situational awareness.

Loading next visibility...
Identifier
34274, 1993-036LU
Orbit
LEO
Country
Flag of CISCIS
Related business
Manufacturer
Unknown
Mission
Spacecraft
Bus & Motor
Unknown
Mass
Unknown
Launch date (UTC)
1993-06-16 (33 years ago)
Launch vehicle
Unknown
Launch site
Plesetsk Missile And Space Complex (PKMTR)
Object type
Payload
Rocket body
Debris
Shape & HBR
Unknown shape, 0.1 m
Radar Cross Section
Medium (>0.1 m² and <1 m²)

Expand to show TLE details & history
Last TLE update: 22 hours ago

TLE from 22 hours ago
0 COSMOS 2251 DEB
1 34274U 93036LU  26206.12653073  .00005570  00000-0  99221-3 0  9997
2 34274  74.0034 355.3176 0022312  83.2635  32.6493 14.67129859919645
Epoch: 2026-07-25T03:02Z
TLE epoch observation values (Epoch: 2026-07-25T03:02:12.255Z)
Latitude
59.83237°
Longitude
157.54687°
Altitude
666.83 km
Speed
7.537 km/s
True Right ascension
09h 43m 45s
True Declination
59° 40' 51"
Sunlit
Object was in daylight at epoch
Visualization orbit readout
Latitude
Unknown
Longitude
Unknown
Altitude
Unknown
Speed
Unknown
Apparent Right ascension
Unknown
Apparent Declination
Unknown
Sunlit
N/A
Visualization observer readout
Local Sidereal Time
14:08:46
Azimuth
Unknown
Elevation
Unknown
Doppler factor
Unknown
Orbital elements
Apogee altitude
683.559 km
Perigee altitude
652.117 km
Semi-major axis
7,045.975 km
Eccentricity
0.00223
Inclination
74.0034°
RAAN
355.3176°
Arg. of periapsis
83.2635°
True anomaly
32.78756°
Mean anomaly
32.6493°
Eccentric anomaly
32.7184°
Mean motion
3.66971 °/min
Orbital period
98.1 mins
BSTAR
0.00099221

Documentation

Showing up to 5 results
|